| time (UTC) | temp F | wind direction | speed knots | gust knots | rain 1hr in | rain 24hr in | rain mn in | humidity % | barometer mb |
| 20260906230113 | 100 | 122 | 3.5 | 6.1 | 0.00 | 0.00 | 0.00 | 40 | 1011.2 |
| 20260906225612 | 100 | 53 | 1.7 | 1.7 | 0.00 | 0.00 | 0.00 | 40 | 1011.3 |
| 20260906225108 | 100 | 269 | 0.0 | 2.6 | 0.00 | 0.00 | 0.00 | 41 | 1011.2 |
| 20260906224603 | 98 | 102 | 3.5 | 5.2 | 0.00 | 0.00 | 0.00 | 40 | 1011.4 |
| 20260906224100 | 100 | 98 | 3.5 | 5.2 | 0.00 | 0.00 | 0.00 | 40 | 1011.3 |
| 20260906223555 | 100 | 240 | 0.9 | 3.5 | 0.00 | 0.00 | 0.00 | 40 | 1011.4 |
| 20260906223055 | 100 | 152 | 1.7 | 4.3 | 0.00 | 0.00 | 0.00 | 40 | 1011.5 |
| 20260906222554 | 100 | 95 | 3.5 | 5.2 | 0.00 | 0.00 | 0.00 | 40 | 1011.2 |
| 20260906222052 | 98 | 103 | 0.9 | 4.3 | 0.00 | 0.00 | 0.00 | 42 | 1011.6 |
| 20260906221550 | 100 | 8 | 2.6 | 5.2 | 0.00 | 0.00 | 0.00 | 40 | 1011.4 |
| 20260906221046 | 100 | 256 | 0.0 | 2.6 | 0.00 | 0.00 | 0.00 | 40 | 1011.4 |
| 20260906220541 | 98 | 235 | 0.0 | 7.0 | 0.00 | 0.00 | 0.00 | 42 | 1011.6 |
| 20260906220037 | 98 | 87 | 4.3 | 9.6 | 0.00 | 0.00 | 0.00 | 42 | 1011.4 |
| 20260906215535 | 98 | 257 | 1.7 | 5.2 | 0.00 | 0.00 | 0.00 | 42 | 1011.2 |
| 20260906215034 | 97 | 38 | 0.9 | 3.5 | 0.00 | 0.00 | 0.00 | 43 | 1011.3 |
| 20260906214532 | 98 | 68 | 3.5 | 12.2 | 0.00 | 0.00 | 0.00 | 42 | 1011.4 |
| 20260906214027 | 101 | 68 | 3.5 | 4.3 | 0.00 | 0.00 | 0.00 | 41 | 1011.3 |
| 20260906213527 | 101 | 101 | 2.6 | 4.3 | 0.00 | 0.00 | 0.00 | 41 | 1011.6 |
| 20260906213021 | 101 | 221 | 2.6 | 3.5 | 0.00 | 0.00 | 0.00 | 40 | 1011.5 |
| 20260906212515 | 100 | 214 | 1.7 | 2.6 | 0.00 | 0.00 | 0.00 | 41 | 1011.7 |
| 20260906212010 | 99 | 81 | 5.2 | 7.8 | 0.00 | 0.00 | 0.00 | 42 | 1011.7 |
| 20260906211509 | 101 | 342 | 1.7 | 1.7 | 0.00 | 0.00 | 0.00 | 39 | 1011.8 |
| 20260906211005 | 100 | 357 | 2.6 | 4.3 | 0.00 | 0.00 | 0.00 | 39 | 1011.9 |
| 20260906210455 | 100 | 118 | 3.5 | 3.5 | 0.00 | 0.00 | 0.00 | 39 | 1012.0 |
| 20260906205954 | 99 | 3 | 1.7 | 4.3 | 0.00 | 0.00 | 0.00 | 41 | 1012.0 |
| 20260906205449 | 99 | 124 | 2.6 | 6.1 | 0.00 | 0.00 | 0.00 | 41 | 1012.0 |
| 20260906204946 | 100 | 49 | 7.0 | 8.7 | 0.00 | 0.00 | 0.00 | 40 | 1012.0 |
| 20260906204445 | 99 | 199 | 1.7 | 5.2 | 0.00 | 0.00 | 0.00 | 40 | 1012.3 |
| 20260906203944 | 98 | 113 | 2.6 | 7.0 | 0.00 | 0.00 | 0.00 | 43 | 1012.5 |
| 20260906203439 | 98 | 108 | 1.7 | 5.2 | 0.00 | 0.00 | 0.00 | 43 | 1012.5 |
| 20260906202937 | 98 | 97 | 3.5 | 6.1 | 0.00 | 0.00 | 0.00 | 44 | 1012.7 |
| 20260906202436 | 97 | 60 | 7.8 | 13.0 | 0.00 | 0.00 | 0.00 | 44 | 1012.6 |
| 20260906201931 | 98 | 47 | 0.9 | 5.2 | 0.00 | 0.00 | 0.00 | 44 | 1012.8 |
| 20260906201426 | 97 | 60 | 5.2 | 9.6 | 0.00 | 0.00 | 0.00 | 44 | 1012.7 |
| 20260906200921 | 99 | 180 | 1.7 | 6.1 | 0.00 | 0.00 | 0.00 | 43 | 1012.9 |
| 20260906200418 | 99 | 153 | 3.5 | 3.5 | 0.00 | 0.00 | 0.00 | 43 | 1012.9 |
| 20260906195917 | 98 | 112 | 1.7 | 5.2 | 0.00 | 0.00 | 0.00 | 44 | 1012.8 |
| 20260906195414 | 99 | 83 | 2.6 | 3.5 | 0.00 | 0.00 | 0.00 | 44 | 1012.9 |
| 20260906194909 | 97 | 82 | 6.1 | 10.4 | 0.00 | 0.00 | 0.00 | 45 | 1013.2 |
| 20260906194405 | 97 | 55 | 3.5 | 13.0 | 0.00 | 0.00 | 0.00 | 45 | 1013.1 |
| 20260906193900 | 98 | 226 | 2.6 | 2.6 | 0.00 | 0.00 | 0.00 | 43 | 1013.0 |
| 20260906193355 | 98 | 127 | 3.5 | 6.1 | 0.00 | 0.00 | 0.00 | 45 | 1013.2 |
| 20260906192851 | 98 | 162 | 1.7 | 3.5 | 0.00 | 0.00 | 0.00 | 45 | 1013.1 |
| 20260906192345 | 99 | 16 | 2.6 | 4.3 | 0.00 | 0.00 | 0.00 | 44 | 1013.2 |
| 20260906191844 | 99 | 331 | 1.7 | 3.5 | 0.00 | 0.00 | 0.00 | 45 | 1013.4 |
| 20260906191338 | 97 | 324 | 0.9 | 7.8 | 0.00 | 0.00 | 0.00 | 47 | 1013.5 |
| 20260906190833 | 97 | 39 | 3.5 | 5.2 | 0.00 | 0.00 | 0.00 | 46 | 1013.4 |
| 20260906190333 | 96 | 136 | 1.7 | 3.5 | 0.00 | 0.00 | 0.00 | 47 | 1013.4 |
| 20260906185833 | 97 | 59 | 7.0 | 9.6 | 0.00 | 0.00 | 0.00 | 47 | 1013.4 |
| 20260906185331 | 98 | 178 | 3.5 | 8.7 | 0.00 | 0.00 | 0.00 | 47 | 1013.6 |
| 20260906184827 | 98 | 110 | 3.5 | 4.3 | 0.00 | 0.00 | 0.00 | 46 | 1013.5 |
| 20260906184327 | 98 | 108 | 3.5 | 5.2 | 0.00 | 0.00 | 0.00 | 46 | 1013.7 |
| 20260906183822 | 97 | 146 | 1.7 | 5.2 | 0.00 | 0.00 | 0.00 | 47 | 1013.6 |
| 20260906183319 | 97 | 117 | 1.7 | 4.3 | 0.00 | 0.00 | 0.00 | 47 | 1013.5 |
| 20260906182819 | 97 | 121 | 1.7 | 5.2 | 0.00 | 0.00 | 0.00 | 47 | 1013.8 |
| 20260906182314 | 97 | 102 | 4.3 | 9.6 | 0.00 | 0.00 | 0.00 | 48 | 1014.2 |
| 20260906181814 | 95 | 107 | 2.6 | 7.0 | 0.00 | 0.00 | 0.00 | 49 | 1014.0 |
| 20260906181311 | 95 | 65 | 5.2 | 7.8 | 0.00 | 0.00 | 0.00 | 49 | 1013.9 |
| 20260906180806 | 95 | 55 | 9.6 | 11.3 | 0.00 | 0.00 | 0.00 | 50 | 1014.0 |
| 20260906180301 | 95 | 79 | 3.5 | 9.6 | 0.00 | 0.00 | 0.00 | 50 | 1014.2 |
| 20260906175758 | 95 | 133 | 0.9 | 3.5 | 0.00 | 0.00 | 0.00 | 49 | 1014.1 |
| 20260906175254 | 95 | 160 | 1.7 | 6.1 | 0.00 | 0.00 | 0.00 | 48 | 1014.3 |
| 20260906174752 | 95 | 83 | 6.1 | 8.7 | 0.00 | 0.00 | 0.00 | 49 | 1014.3 |
| 20260906174252 | 95 | 91 | 2.6 | 4.3 | 0.00 | 0.00 | 0.00 | 50 | 1014.3 |
| 20260906173747 | 95 | 220 | 0.9 | 5.2 | 0.00 | 0.00 | 0.00 | 51 | 1014.6 |
| 20260906173243 | 95 | 81 | 3.5 | 7.8 | 0.00 | 0.00 | 0.00 | 50 | 1014.6 |
| 20260906172742 | 94 | 41 | 3.5 | 4.3 | 0.00 | 0.00 | 0.00 | 52 | 1014.8 |
| 20260906172237 | 96 | 14 | 1.7 | 5.2 | 0.00 | 0.00 | 0.00 | 51 | 1014.7 |
| 20260906171732 | 94 | 51 | 3.5 | 3.5 | 0.00 | 0.00 | 0.00 | 52 | 1014.8 |
| 20260906171228 | 93 | 94 | 1.7 | 5.2 | 0.00 | 0.00 | 0.00 | 52 | 1014.9 |
| 20260906170723 | 94 | 181 | 1.7 | 3.5 | 0.00 | 0.00 | 0.00 | 52 | 1015.0 |
| 20260906170218 | 93 | 80 | 1.7 | 8.7 | 0.00 | 0.00 | 0.00 | 54 | 1015.0 |
| 20260906165715 | 94 | 82 | 2.6 | 7.8 | 0.00 | 0.00 | 0.00 | 54 | 1015.0 |
| 20260906165209 | 94 | 161 | 1.7 | 7.8 | 0.00 | 0.00 | 0.00 | 51 | 1015.0 |
| 20260906164708 | 95 | 100 | 1.7 | 4.3 | 0.00 | 0.00 | 0.00 | 52 | 1015.2 |
| 20260906164204 | 95 | 247 | 1.7 | 2.6 | 0.00 | 0.00 | 0.00 | 51 | 1015.0 |
| 20260906163700 | 95 | 32 | 1.7 | 3.5 | 0.00 | 0.00 | 0.00 | 54 | 1015.2 |
| 20260906163156 | 93 | 242 | 1.7 | 3.5 | 0.00 | 0.00 | 0.00 | 54 | 1015.2 |
| 20260906162652 | 93 | 122 | 1.7 | 5.2 | 0.00 | 0.00 | 0.00 | 55 | 1015.3 |
| 20260906162152 | 93 | 109 | 1.7 | 5.2 | 0.00 | 0.00 | 0.00 | 55 | 1015.0 |
| 20260906161647 | 93 | 185 | 1.7 | 5.2 | 0.00 | 0.00 | 0.00 | 56 | 1015.0 |
| 20260906161146 | 93 | 134 | 1.7 | 5.2 | 0.00 | 0.00 | 0.00 | 57 | 1014.8 |
| 20260906160645 | 92 | 121 | 2.6 | 3.5 | 0.00 | 0.00 | 0.00 | 58 | 1015.1 |
| 20260906160144 | 91 | 52 | 4.3 | 7.8 | 0.00 | 0.00 | 0.00 | 59 | 1014.8 |
| 20260906155642 | 92 | 73 | 2.6 | 4.3 | 0.00 | 0.00 | 0.00 | 57 | 1015.0 |
| 20260906155138 | 91 | 68 | 3.5 | 7.0 | 0.00 | 0.00 | 0.00 | 60 | 1015.1 |
| 20260906154633 | 92 | 92 | 1.7 | 4.3 | 0.00 | 0.00 | 0.00 | 60 | 1014.9 |
| 20260906154133 | 91 | 195 | 0.0 | 3.5 | 0.00 | 0.00 | 0.00 | 63 | 1014.8 |
| 20260906153631 | 90 | 93 | 0.0 | 4.3 | 0.00 | 0.00 | 0.00 | 64 | 1014.9 |
| 20260906153126 | 91 | 68 | 1.7 | 2.6 | 0.00 | 0.00 | 0.00 | 63 | 1014.8 |
| 20260906152621 | 92 | 57 | 0.0 | 1.7 | 0.00 | 0.00 | 0.00 | 62 | 1014.7 |
| 20260906152121 | 91 | 162 | 1.7 | 2.6 | 0.00 | 0.00 | 0.00 | 64 | 1014.9 |
| 20260906151615 | 89 | 54 | 1.7 | 4.3 | 0.00 | 0.00 | 0.00 | 67 | 1014.7 |
| 20260906151112 | 89 | 75 | 1.7 | 3.5 | 0.00 | 0.00 | 0.00 | 68 | 1014.7 |
| 20260906150607 | 90 | 96 | 0.0 | 2.6 | 0.00 | 0.00 | 0.00 | 67 | 1014.9 |
| 20260906145601 | 90 | 34 | 2.6 | 3.5 | 0.00 | 0.00 | 0.00 | 67 | 1014.6 |
| 20260906145056 | 88 | 55 | 1.7 | 2.6 | 0.00 | 0.00 | 0.00 | 69 | 1014.7 |
| 20260906144550 | 88 | 342 | 0.9 | 2.6 | 0.00 | 0.00 | 0.00 | 70 | 1014.5 |
| 20260906144045 | 88 | 37 | 3.5 | 3.5 | 0.00 | 0.00 | 0.00 | 70 | 1014.8 |
| 20260906143540 | 88 | 89 | 1.7 | 1.7 | 0.00 | 0.00 | 0.00 | 70 | 1014.8 |
| 20260906143037 | 87 | 113 | 0.9 | 3.5 | 0.00 | 0.00 | 0.00 | 71 | 1014.8 |
| 20260906142530 | 88 | 114 | 2.6 | 2.6 | 0.00 | 0.00 | 0.00 | 70 | 1014.8 |
| 20260906142026 | 88 | 68 | 1.7 | 2.6 | 0.00 | 0.00 | 0.00 | 70 | 1014.9 |
| 20260906141526 | 88 | 58 | 0.9 | 1.7 | 0.00 | 0.00 | 0.00 | 71 | 1014.9 |
| 20260906141021 | 87 | 96 | 0.9 | 1.7 | 0.00 | 0.00 | 0.00 | 72 | 1014.8 |
| 20260906140520 | 87 | 46 | 1.7 | 2.6 | 0.00 | 0.00 | 0.00 | 73 | 1014.6 |
| 20260906140019 | 86 | 113 | 0.0 | 1.7 | 0.00 | 0.00 | 0.00 | 74 | 1015.0 |
| 20260906135516 | 86 | 77 | 2.6 | 2.6 | 0.00 | 0.00 | 0.00 | 74 | 1014.6 |
| 20260906135013 | 85 | 25 | 0.9 | 2.6 | 0.00 | 0.00 | 0.00 | 77 | 1014.6 |
| 20260906134508 | 85 | 30 | 0.9 | 2.6 | 0.00 | 0.00 | 0.00 | 75 | 1014.6 |
| 20260906134008 | 84 | 104 | 1.7 | 1.7 | 0.00 | 0.00 | 0.00 | 78 | 1014.8 |
| 20260906133504 | 83 | 101 | 0.9 | 2.6 | 0.00 | 0.00 | 0.00 | 79 | 1014.5 |
| 20260906132959 | 83 | 53 | 0.9 | 1.7 | 0.00 | 0.00 | 0.00 | 80 | 1014.7 |
| 20260906132454 | 84 | 97 | 1.7 | 1.7 | 0.00 | 0.00 | 0.00 | 79 | 1014.6 |
| 20260906131949 | 83 | 51 | 1.7 | 3.5 | 0.00 | 0.00 | 0.00 | 79 | 1014.9 |
| 20260906131445 | 83 | 37 | 1.7 | 2.6 | 0.00 | 0.00 | 0.00 | 80 | 1014.7 |
| 20260906130940 | 83 | 44 | 0.0 | 1.7 | 0.00 | 0.00 | 0.00 | 81 | 1014.8 |
| 20260906130439 | 82 | 111 | 0.0 | 1.7 | 0.00 | 0.00 | 0.00 | 82 | 1014.6 |
| 20260906125934 | 82 | 68 | 2.6 | 2.6 | 0.00 | 0.00 | 0.00 | 82 | 1014.6 |
| 20260906125432 | 81 | 106 | 0.9 | 1.7 | 0.00 | 0.00 | 0.00 | 83 | 1014.5 |
| 20260906124931 | 80 | 57 | 1.7 | 1.7 | 0.00 | 0.00 | 0.00 | 85 | 1014.4 |
| 20260906124428 | 80 | 55 | 1.7 | 2.6 | 0.00 | 0.00 | 0.00 | 85 | 1014.3 |
| 20260906123927 | 80 | 48 | 1.7 | 2.6 | 0.00 | 0.00 | 0.00 | 86 | 1014.7 |
| 20260906123426 | 79 | 51 | 0.9 | 1.7 | 0.00 | 0.00 | 0.00 | 86 | 1014.5 |
| 20260906122921 | 79 | 53 | 0.0 | 0.9 | 0.00 | 0.00 | 0.00 | 87 | 1014.3 |
| 20260906122416 | 78 | 54 | 0.0 | 0.9 | 0.00 | 0.00 | 0.00 | 89 | 1014.4 |
| 20260906121913 | 78 | 44 | 0.9 | 1.7 | 0.00 | 0.00 | 0.00 | 89 | 1014.3 |
| 20260906121409 | 78 | 39 | 0.9 | 1.7 | 0.00 | 0.00 | 0.00 | 89 | 1014.2 |
| 20260906120905 | 78 | 78 | 0.0 | 1.7 | 0.00 | 0.00 | 0.00 | 89 | 1014.1 |
| 20260906120400 | 78 | 63 | 0.9 | 1.7 | 0.00 | 0.00 | 0.00 | 89 | 1014.2 |
| 20260906115856 | 78 | 80 | 0.0 | 1.7 | 0.00 | 0.00 | 0.00 | 89 | 1014.1 |
| 20260906115351 | 78 | 120 | 1.7 | 1.7 | 0.00 | 0.00 | 0.00 | 89 | 1013.9 |
| 20260906114850 | 78 | 117 | 0.0 | 1.7 | 0.00 | 0.00 | 0.00 | 89 | 1014.1 |
| 20260906114346 | 78 | 38 | 0.9 | 1.7 | 0.00 | 0.00 | 0.00 | 88 | 1013.8 |
| 20260906113841 | 78 | 67 | 0.9 | 0.9 | 0.00 | 0.00 | 0.00 | 88 | 1014.0 |
| 20260906113340 | 78 | 48 | 0.9 | 1.7 | 0.00 | 0.00 | 0.00 | 88 | 1014.0 |
| 20260906112835 | 78 | 62 | 0.0 | 0.9 | 0.00 | 0.00 | 0.00 | 88 | 1013.8 |
| 20260906112332 | 78 | 38 | 0.0 | 1.7 | 0.00 | 0.00 | 0.00 | 88 | 1013.7 |
| 20260906111826 | 78 | 62 | 0.0 | 1.7 | 0.00 | 0.00 | 0.00 | 87 | 1013.8 |
| 20260906111326 | 78 | 62 | 0.0 | 1.7 | 0.00 | 0.00 | 0.00 | 87 | 1013.8 |
| 20260906110821 | 78 | 23 | 0.0 | 1.7 | 0.00 | 0.00 | 0.00 | 87 | 1013.8 |
| 20260906110317 | 78 | 32 | 0.0 | 1.7 | 0.00 | 0.00 | 0.00 | 87 | 1013.8 |
| 20260906105815 | 78 | 29 | 0.0 | 0.9 | 0.00 | 0.00 | 0.00 | 87 | 1013.7 |
| 20260906105311 | 78 | 13 | 0.0 | 0.9 | 0.00 | 0.00 | 0.00 | 87 | 1013.4 |
| 20260906104807 | 78 | 58 | 0.0 | 0.9 | 0.00 | 0.00 | 0.00 | 86 | 1013.6 |
| 20260906104259 | 78 | 55 | 0.0 | 1.7 | 0.00 | 0.00 | 0.00 | 86 | 1013.6 |
| 20260906103758 | 78 | 49 | 0.0 | 0.9 | 0.00 | 0.00 | 0.00 | 86 | 1013.5 |
| 20260906103257 | 79 | 69 | 0.0 | 0.9 | 0.00 | 0.00 | 0.00 | 86 | 1013.5 |
| 20260906102753 | 79 | 108 | 1.7 | 1.7 | 0.00 | 0.00 | 0.00 | 85 | 1013.6 |
| 20260906102251 | 79 | 71 | 0.9 | 1.7 | 0.00 | 0.00 | 0.00 | 85 | 1013.5 |
| 20260906101747 | 79 | 45 | 0.9 | 1.7 | 0.00 | 0.00 | 0.00 | 85 | 1013.5 |
| 20260906101242 | 79 | 101 | 0.0 | 1.7 | 0.00 | 0.00 | 0.00 | 85 | 1013.4 |
| 20260906100737 | 79 | 65 | 0.0 | 0.0 | 0.00 | 0.00 | 0.00 | 85 | 1013.5 |
| 20260906100237 | 79 | 13 | 0.0 | 0.9 | 0.00 | 0.00 | 0.00 | 85 | 1013.5 |
| 20260906095733 | 79 | 32 | 0.0 | 0.0 | 0.00 | 0.00 | 0.00 | 85 | 1013.4 |
| 20260906095227 | 79 | 306 | 0.0 | 0.0 | 0.00 | 0.00 | 0.00 | 85 | 1013.3 |
| 20260906094726 | 79 | 304 | 0.0 | 1.7 | 0.00 | 0.00 | 0.00 | 85 | 1013.3 |
| 20260906094222 | 80 | 356 | 0.0 | 0.9 | 0.00 | 0.00 | 0.00 | 84 | 1013.3 |
| 20260906093718 | 80 | 294 | 0.0 | 0.9 | 0.00 | 0.00 | 0.00 | 83 | 1013.0 |
| 20260906093213 | 80 | 293 | 0.0 | 0.0 | 0.00 | 0.00 | 0.00 | 83 | 1013.1 |
| 20260906092709 | 80 | 339 | 0.0 | 0.9 | 0.00 | 0.00 | 0.00 | 83 | 1012.9 |
| 20260906092208 | 80 | 312 | 0.0 | 0.9 | 0.00 | 0.00 | 0.00 | 83 | 1012.9 |
| 20260906091704 | 80 | 62 | 0.0 | 0.9 | 0.00 | 0.00 | 0.00 | 82 | 1012.9 |
| 20260906091200 | 80 | 217 | 0.9 | 1.7 | 0.00 | 0.00 | 0.00 | 81 | 1013.0 |
| 20260906090657 | 81 | 282 | 0.0 | 0.9 | 0.00 | 0.00 | 0.00 | 81 | 1012.9 |
| 20260906090156 | 81 | 284 | 0.0 | 0.0 | 0.00 | 0.00 | 0.00 | 81 | 1012.9 |
| 20260906085655 | 81 | 284 | 0.0 | 0.9 | 0.00 | 0.00 | 0.00 | 81 | 1013.0 |
| 20260906085154 | 81 | 297 | 0.0 | 0.9 | 0.00 | 0.00 | 0.00 | 81 | 1012.9 |
| 20260906084649 | 81 | 89 | 0.0 | 1.7 | 0.00 | 0.00 | 0.00 | 80 | 1013.0 |
| 20260906084148 | 81 | 284 | 0.0 | 0.9 | 0.00 | 0.00 | 0.00 | 80 | 1012.7 |
| 20260906083643 | 81 | 156 | 1.7 | 1.7 | 0.00 | 0.00 | 0.00 | 80 | 1012.8 |
| 20260906083139 | 81 | 235 | 0.0 | 2.6 | 0.00 | 0.00 | 0.00 | 79 | 1012.7 |
| 20260906082634 | 82 | 180 | 0.0 | 2.6 | 0.00 | 0.00 | 0.00 | 79 | 1012.6 |
| 20260906082129 | 81 | 161 | 0.9 | 1.7 | 0.00 | 0.00 | 0.00 | 79 | 1012.9 |
| 20260906081626 | 82 | 135 | 0.0 | 1.7 | 0.00 | 0.00 | 0.00 | 79 | 1012.8 |
| 20260906081120 | 82 | 124 | 0.0 | 1.7 | 0.00 | 0.00 | 0.00 | 79 | 1012.7 |
| 20260906080617 | 82 | 234 | 1.7 | 1.7 | 0.00 | 0.00 | 0.00 | 78 | 1013.0 |
| 20260906080113 | 82 | 149 | 0.0 | 2.6 | 0.00 | 0.00 | 0.00 | 78 | 1012.8 |
| 20260906075612 | 82 | 177 | 0.0 | 1.7 | 0.00 | 0.00 | 0.00 | 78 | 1012.9 |
| 20260906075107 | 82 | 224 | 0.0 | 1.7 | 0.00 | 0.00 | 0.00 | 78 | 1013.1 |
| 20260906074602 | 82 | 131 | 0.0 | 1.7 | 0.00 | 0.00 | 0.00 | 78 | 1013.0 |
| 20260906074101 | 82 | 144 | 1.7 | 1.7 | 0.00 | 0.00 | 0.00 | 77 | 1012.9 |
| 20260906073556 | 82 | 142 | 0.0 | 1.7 | 0.00 | 0.00 | 0.00 | 77 | 1013.0 |
| 20260906073046 | 82 | 157 | 0.0 | 1.7 | 0.00 | 0.00 | 0.00 | 77 | 1013.0 |
| 20260906072540 | 82 | 135 | 0.0 | 1.7 | 0.00 | 0.00 | 0.00 | 77 | 1012.8 |
| 20260906072037 | 82 | 189 | 0.9 | 1.7 | 0.00 | 0.00 | 0.00 | 76 | 1012.7 |
| 20260906071533 | 83 | 227 | 1.7 | 1.7 | 0.00 | 0.00 | 0.00 | 76 | 1013.0 |
| 20260906071028 | 83 | 239 | 2.6 | 2.6 | 0.00 | 0.00 | 0.00 | 76 | 1012.9 |
| 20260906070524 | 83 | 198 | 1.7 | 2.6 | 0.00 | 0.00 | 0.00 | 75 | 1013.1 |
| 20260906070020 | 83 | 184 | 0.0 | 1.7 | 0.00 | 0.00 | 0.00 | 74 | 1013.4 |
| 20260906065519 | 83 | 38 | 0.9 | 0.9 | 0.00 | 0.00 | 0.00 | 74 | 1013.2 |
| 20260906065010 | 83 | 219 | 0.0 | 1.7 | 0.00 | 0.00 | 0.00 | 73 | 1013.1 |
| 20260906064505 | 83 | 146 | 0.9 | 1.7 | 0.00 | 0.00 | 0.00 | 73 | 1013.1 |
| 20260906064000 | 83 | 141 | 1.7 | 1.7 | 0.00 | 0.00 | 0.00 | 72 | 1013.1 |
| 20260906063455 | 84 | 148 | 1.7 | 1.7 | 0.00 | 0.00 | 0.00 | 72 | 1013.1 |
| 20260906062949 | 83 | 163 | 1.7 | 1.7 | 0.00 | 0.00 | 0.00 | 72 | 1013.2 |
| 20260906062444 | 83 | 191 | 1.7 | 1.7 | 0.00 | 0.00 | 0.00 | 71 | 1013.3 |
| 20260906061939 | 84 | 134 | 0.0 | 0.9 | 0.00 | 0.00 | 0.00 | 71 | 1013.1 |
| 20260906061435 | 84 | 124 | 0.0 | 0.9 | 0.00 | 0.00 | 0.00 | 70 | 1013.4 |
| 20260906060929 | 84 | 130 | 0.0 | 0.9 | 0.00 | 0.00 | 0.00 | 69 | 1013.4 |
| 20260906060427 | 84 | 99 | 0.0 | 2.6 | 0.00 | 0.00 | 0.00 | 69 | 1013.2 |
| 20260906055923 | 84 | 157 | 0.9 | 1.7 | 0.00 | 0.00 | 0.00 | 68 | 1013.2 |
| 20260906055418 | 84 | 237 | 0.0 | 1.7 | 0.00 | 0.00 | 0.00 | 68 | 1013.2 |
| 20260906054914 | 84 | 62 | 0.0 | 2.6 | 0.00 | 0.00 | 0.00 | 68 | 1013.1 |
| 20260906054408 | 84 | 106 | 0.0 | 2.6 | 0.00 | 0.00 | 0.00 | 68 | 1013.3 |
| 20260906053904 | 85 | 215 | 1.7 | 1.7 | 0.00 | 0.00 | 0.00 | 67 | 1013.1 |
| 20260906053400 | 85 | 101 | 0.0 | 2.6 | 0.00 | 0.00 | 0.00 | 67 | 1013.2 |
| 20260906052855 | 85 | 202 | 0.0 | 0.9 | 0.00 | 0.00 | 0.00 | 67 | 1013.2 |
| 20260906052352 | 85 | 153 | 0.9 | 2.6 | 0.00 | 0.00 | 0.00 | 67 | 1013.0 |
| 20260906051849 | 85 | 99 | 0.0 | 5.2 | 0.00 | 0.00 | 0.00 | 66 | 1013.0 |
| 20260906051348 | 85 | 204 | 0.9 | 3.5 | 0.00 | 0.00 | 0.00 | 67 | 1013.0 |
| 20260906050844 | 85 | 210 | 0.9 | 1.7 | 0.00 | 0.00 | 0.00 | 68 | 1013.0 |
| 20260906050333 | 85 | 273 | 0.0 | 1.7 | 0.00 | 0.00 | 0.00 | 67 | 1013.3 |
| 20260906045832 | 85 | 200 | 0.0 | 0.0 | 0.00 | 0.00 | 0.00 | 68 | 1013.1 |
| 20260906045326 | 86 | 238 | 0.0 | 0.9 | 0.00 | 0.00 | 0.00 | 67 | 1013.1 |
| 20260906044823 | 86 | 236 | 0.0 | 2.6 | 0.00 | 0.00 | 0.00 | 67 | 1013.1 |
| 20260906044317 | 86 | 159 | 0.9 | 1.7 | 0.00 | 0.00 | 0.00 | 66 | 1013.1 |
| 20260906043813 | 86 | 242 | 0.0 | 1.7 | 0.00 | 0.00 | 0.00 | 67 | 1013.2 |
| 20260906043309 | 86 | 280 | 0.0 | 2.6 | 0.00 | 0.00 | 0.00 | 67 | 1013.2 |
| 20260906042809 | 86 | 326 | 1.7 | 1.7 | 0.00 | 0.00 | 0.00 | 67 | 1012.9 |
| 20260906042308 | 86 | 191 | 0.9 | 3.5 | 0.00 | 0.00 | 0.00 | 66 | 1013.3 |
| 20260906041804 | 86 | 200 | 1.7 | 2.6 | 0.00 | 0.00 | 0.00 | 66 | 1013.2 |
| 20260906041259 | 86 | 194 | 0.9 | 1.7 | 0.00 | 0.00 | 0.00 | 66 | 1013.3 |
| 20260906040754 | 86 | 160 | 0.0 | 1.7 | 0.00 | 0.00 | 0.00 | 65 | 1013.2 |
| 20260906040249 | 86 | 169 | 0.0 | 1.7 | 0.00 | 0.00 | 0.00 | 65 | 1013.0 |
| 20260906035744 | 86 | 166 | 0.0 | 1.7 | 0.00 | 0.00 | 0.00 | 65 | 1013.1 |
| 20260906035240 | 86 | 175 | 0.9 | 2.6 | 0.00 | 0.00 | 0.00 | 65 | 1013.1 |
| 20260906034740 | 86 | 180 | 0.0 | 1.7 | 0.00 | 0.00 | 0.00 | 65 | 1013.1 |
| 20260906034235 | 86 | 165 | 0.9 | 1.7 | 0.00 | 0.00 | 0.00 | 65 | 1013.1 |
| 20260906033731 | 87 | 106 | 0.0 | 2.6 | 0.00 | 0.00 | 0.00 | 65 | 1013.2 |
| 20260906033230 | 87 | 199 | 1.7 | 1.7 | 0.00 | 0.00 | 0.00 | 65 | 1013.1 |
| 20260906032727 | 87 | 123 | 0.0 | 1.7 | 0.00 | 0.00 | 0.00 | 65 | 1013.1 |
| 20260906032227 | 87 | 281 | 0.0 | 0.0 | 0.00 | 0.00 | 0.00 | 65 | 1013.2 |
| 20260906031722 | 87 | 187 | 0.0 | 0.9 | 0.00 | 0.00 | 0.00 | 64 | 1013.2 |
| 20260906031218 | 87 | 195 | 0.0 | 1.7 | 0.00 | 0.00 | 0.00 | 64 | 1013.2 |
| 20260906030717 | 87 | 184 | 0.9 | 1.7 | 0.00 | 0.00 | 0.00 | 64 | 1013.1 |
| 20260906030213 | 87 | 252 | 0.9 | 3.5 | 0.00 | 0.00 | 0.00 | 63 | 1013.1 |
| 20260906025712 | 87 | 186 | 0.9 | 2.6 | 0.00 | 0.00 | 0.00 | 62 | 1013.2 |
| 20260906025206 | 88 | 205 | 0.0 | 1.7 | 0.00 | 0.00 | 0.00 | 62 | 1013.2 |
| 20260906024700 | 88 | 221 | 0.0 | 1.7 | 0.00 | 0.00 | 0.00 | 62 | 1013.0 |
| 20260906024159 | 88 | 173 | 0.9 | 1.7 | 0.00 | 0.00 | 0.00 | 62 | 1013.1 |
| 20260906023656 | 88 | 120 | 0.9 | 2.6 | 0.00 | 0.00 | 0.00 | 61 | 1012.9 |
| 20260906023155 | 88 | 223 | 0.9 | 1.7 | 0.00 | 0.00 | 0.00 | 62 | 1012.7 |
| 20260906022650 | 88 | 208 | 0.9 | 2.6 | 0.00 | 0.00 | 0.00 | 61 | 1012.9 |
| 20260906022146 | 88 | 135 | 3.5 | 3.5 | 0.00 | 0.00 | 0.00 | 61 | 1012.8 |
| 20260906021642 | 88 | 130 | 1.7 | 2.6 | 0.00 | 0.00 | 0.00 | 61 | 1012.7 |
| 20260906021140 | 88 | 331 | 1.7 | 2.6 | 0.00 | 0.00 | 0.00 | 60 | 1012.3 |
| 20260906020635 | 88 | 100 | 2.6 | 2.6 | 0.00 | 0.00 | 0.00 | 61 | 1012.5 |
| 20260906020130 | 88 | 101 | 2.6 | 4.3 | 0.00 | 0.00 | 0.00 | 61 | 1012.4 |
| 20260906015624 | 88 | 17 | 0.9 | 1.7 | 0.00 | 0.00 | 0.00 | 61 | 1012.4 |
| 20260906015122 | 88 | 229 | 1.7 | 3.5 | 0.00 | 0.00 | 0.00 | 60 | 1012.3 |
| 20260906014617 | 88 | 260 | 0.0 | 3.5 | 0.00 | 0.00 | 0.00 | 60 | 1012.6 |
| 20260906014114 | 88 | 34 | 1.7 | 5.2 | 0.00 | 0.00 | 0.00 | 60 | 1012.3 |
| 20260906013609 | 89 | 109 | 5.2 | 5.2 | 0.00 | 0.00 | 0.00 | 59 | 1012.2 |
| 20260906013104 | 89 | 107 | 0.9 | 9.6 | 0.00 | 0.00 | 0.00 | 59 | 1012.0 |
| 20260906012559 | 90 | 65 | 2.6 | 2.6 | 0.00 | 0.00 | 0.00 | 57 | 1011.8 |
| 20260906012059 | 91 | 112 | 1.7 | 2.6 | 0.00 | 0.00 | 0.00 | 56 | 1011.8 |
| 20260906011555 | 91 | 202 | 2.6 | 7.0 | 0.00 | 0.00 | 0.00 | 55 | 1011.7 |
| 20260906011049 | 92 | 133 | 2.6 | 4.3 | 0.00 | 0.00 | 0.00 | 54 | 1011.7 |
| 20260906010545 | 92 | 185 | 0.9 | 2.6 | 0.00 | 0.00 | 0.00 | 53 | 1011.4 |
| 20260906010041 | 93 | 203 | 1.7 | 4.3 | 0.00 | 0.00 | 0.00 | 52 | 1011.4 |
| 20260906005540 | 93 | 119 | 3.5 | 3.5 | 0.00 | 0.00 | 0.00 | 51 | 1011.4 |
| 20260906005038 | 94 | 17 | 2.6 | 5.2 | 0.00 | 0.00 | 0.00 | 51 | 1011.3 |
| 20260906004538 | 94 | 136 | 2.6 | 6.1 | 0.00 | 0.00 | 0.00 | 49 | 1011.2 |
| 20260906004033 | 95 | 143 | 1.7 | 7.0 | 0.00 | 0.00 | 0.00 | 48 | 1011.2 |
| 20260906003529 | 96 | 305 | 1.7 | 4.3 | 0.00 | 0.00 | 0.00 | 45 | 1011.0 |
| 20260906003025 | 96 | 208 | 0.0 | 4.3 | 0.00 | 0.00 | 0.00 | 45 | 1010.9 |
| 20260906002525 | 96 | 48 | 0.0 | 3.5 | 0.00 | 0.00 | 0.00 | 44 | 1011.2 |
| 20260906002019 | 97 | 98 | 2.6 | 5.2 | 0.00 | 0.00 | 0.00 | 44 | 1011.2 |
| 20260906001515 | 97 | 198 | 0.9 | 2.6 | 0.00 | 0.00 | 0.00 | 43 | 1011.3 |
| 20260906001010 | 97 | 233 | 1.7 | 3.5 | 0.00 | 0.00 | 0.00 | 43 | 1011.2 |
| 20260906000506 | 98 | 256 | 0.9 | 2.6 | 0.00 | 0.00 | 0.00 | 42 | 1011.2 |
| 20260906000006 | 99 | 269 | 0.0 | 2.6 | 0.00 | 0.00 | 0.00 | 41 | 1011.1 |
| 20260905235459 | 100 | 56 | 1.7 | 2.6 | 0.00 | 0.00 | 0.00 | 41 | 1011.0 |
| 20260905234955 | 99 | 195 | 0.9 | 2.6 | 0.00 | 0.00 | 0.00 | 41 | 1011.1 |
| 20260905234450 | 98 | 303 | 1.7 | 2.6 | 0.00 | 0.00 | 0.00 | 42 | 1011.0 |
| 20260905233950 | 99 | 113 | 2.6 | 2.6 | 0.00 | 0.00 | 0.00 | 41 | 1010.7 |
| 20260905233446 | 98 | 120 | 1.7 | 5.2 | 0.00 | 0.00 | 0.00 | 42 | 1010.9 |
| 20260905232944 | 98 | 118 | 2.6 | 4.3 | 0.00 | 0.00 | 0.00 | 42 | 1011.0 |
| 20260905232441 | 100 | 123 | 0.9 | 1.7 | 0.00 | 0.00 | 0.00 | 40 | 1011.2 |
| 20260905231936 | 100 | 110 | 2.6 | 4.3 | 0.00 | 0.00 | 0.00 | 40 | 1011.0 |
| 20260905231432 | 99 | 49 | 1.7 | 4.3 | 0.00 | 0.00 | 0.00 | 41 | 1011.0 |
| 20260905230928 | 99 | 119 | 1.7 | 4.3 | 0.00 | 0.00 | 0.00 | 41 | 1010.8 |
| 20260905230426 | 99 | 77 | 0.0 | 4.3 | 0.00 | 0.00 | 0.00 | 41 | 1011.2 |